Regional Weather Roundup
Issued by NWS Spokane, WA

Home | Current Version | Previous Version | Text Only | Print | Product List | Glossary On
Versions: 1 2 3 4 5 6 7 8 9 10 11 12 13 14 15 16 17 18 19 20 21 22 23 24 25 26 27 28 29 30 31 32 33 34 35 36 37 38 39 40 41 42 43 44 45 46 47 48 49 50
128
NZUS01 KOTX 271700
RWROTX

Eastern Washington/Northern Idaho Roundup
National Weather Service, Spokane WA
1000 AM PDT THU APR 27 2017

Note: "fair" indicated few or no clouds below 12,000 feet with no
significant weather and/or obstructions to visibility.

...Northeast Washington and Northern Idaho Panhandle...

CITY           SKY/WX    TMP DP  RH WIND       PRES   REMARKS
Spokane Intl   PTSUNNY   44  32  62 SW18      29.85F
Spokane Downto CLOUDY    45  32  60 W10G20    29.88S
Coeur d Alene  CLOUDY    41  33  73 S8        29.88S
Deer Park      CLOUDY    44  32  62 S12       29.86S

...Southeast Washington and southern Idaho Panhandle...

CITY           SKY/WX    TMP DP  RH WIND       PRES   REMARKS
Walla Walla    CLOUDY    48  35  60 SW14      30.00S
Pullman/Moscow CLOUDY    42  32  67 W21G31    29.93S
Lowell           N/A     44  39  82 CALM      29.96R

...Columbia Basin...

CITY           SKY/WX    TMP DP  RH WIND       PRES   REMARKS
Ephrata        MOSUNNY   56  22  26 NW15G26   29.87S
Moses Lake     MOSUNNY   55  26  32 W17       29.90S
Pasco          MOSUNNY   55  33  43 SW18      29.98F
Hermiston        N/A     51  36  56 MISG      30.00F
Pendleton      CLOUDY    48  34  58 W33       29.99S

...East Slopes Cascades...

CITY           SKY/WX    TMP DP  RH WIND       PRES   REMARKS
The Dalles     MOSUNNY   53  40  61 NW15      30.07F
Yakima         MOSUNNY   55  27  34 W14       29.96F
Ellensburg     SUNNY     49  31  49 NW31G40   29.93S
Wenatchee      SUNNY     53  24  32 NW25G31   29.90R
Omak           PTSUNNY   52  27  38 CALM      29.85R
Sunnyside      SUNNY     52  29  42 W14       29.97F

...Southern British Columbia...

CITY           SKY/WX    TMP DP  RH WIND       PRES   REMARKS

...Western Montana...

CITY           SKY/WX    TMP DP  RH WIND       PRES   REMARKS
Kalispell      CLOUDY    43  33  68 S16       29.74R
Missoula       CLOUDY    43  29  57 W15       29.81S

...Neighboring Cities...

CITY           SKY/WX    TMP DP  RH WIND       PRES   REMARKS
Seattle        PTSUNNY   49  40  71 SW10      30.08S
Portland       CLOUDY    48  41  76 SW10      30.15S
Boise          CLOUDY    43  32  65 W17       29.96R
Great Falls    LGT RAIN  42  36  79 NW13      29.67R
Calgary        LGT RAIN  39  32  75 S7        29.69S



USA.gov is the U.S. government's official web portal to all federal, state and local government web resources and services.